Home > Time Zones > World Clock > Weather > Qatar > Doha > Past weeks

Flag for Qatar Weather past 2 weeks in Doha, Qatar

Now
75 °F

Passing clouds.


Feels Like: 78 °F
Forecast: 63 / 78 °F
Wind: 5 mph from South

Location: Doha International Airport

Current Time: Jan 31, 2015 at 10:05:14 AM

Latest Report: Jan 31, 2015 at 9:00 AM


Visibility: N/A

Pressure: 30.12 "Hg

Humidity: 57%

Dew point: 59 °F

Location of DohaLocation

Historic Weather in Doha — Graph

°F

Doha temperature yesterday

Maximum temperature yesterday: 82 °F (at 2:00 PM)
Minimum temperature yesterday: 66 °F (at 5:00 AM)
Average temperature yesterday: 72 °F

Past Weeks' High & Low Weather Summary

 TemperatureHumidityPressure
High82 °F (Jan 30, 2:00 PM)100% (Jan 17, 3:00 AM)30.30 "Hg (Jan 17, 3:00 AM)
Low54 °F (Jan 21, 5:00 AM)25% (Jan 24, 12:30 PM)29.98 "Hg (Jan 29, 4:30 AM)
Average65 °F68%30.13 "Hg
* Reported Jan 16 8:00 AM — Jan 31 8:00 AM, Doha, Weather by CustomWeather, © 2014

Note: Actual official high and low records may vary slightly from our data, if they occured in-between our weather recording intervals... More about our weather records

Advertising

Doha weather history for previous 24 hours

 ConditionsComfort  
Time TempWeatherWind HumidityBarometerVisibility
8:00 AM
Jan 31
72 °FSunny.6 mph73%30.09 "Hg10 mi
7:00 AM66 °FClear.5 mph94%30.07 "Hg6 mi
6:00 AM68 °FClear.8 mph88%30.07 "Hg6 mi
5:30 AM66 °FClear.5 mph88%30.04 "Hg10 mi
5:00 AM66 °FClear.5 mph88%30.04 "Hg10 mi
4:30 AM66 °FClear.7 mph88%30.04 "Hg10 mi
4:00 AM68 °FClear.5 mph83%30.04 "Hg10 mi
3:00 AM68 °FClear.9 mph78%30.04 "Hg10 mi
2:00 AM70 °FClear.8 mph69%30.04 "Hg10 mi
1:00 AM70 °FClear.9 mph69%30.04 "Hg10 mi
12:00 AM70 °FClear.8 mph69%30.04 "Hg10 mi
11:30 PM
Jan 30
70 °FClear.7 mph69%30.07 "Hg10 mi
10:30 PM68 °FClear.5 mph88%30.07 "Hg10 mi
10:00 PM68 °FClear.3 mph94%30.09 "Hg10 mi
9:30 PM70 °FClear.6 mph83%30.09 "Hg10 mi
9:00 PM70 °FClear.7 mph83%30.09 "Hg10 mi
8:00 PM70 °FClear.7 mph83%30.07 "Hg10 mi
7:00 PM70 °FClear.7 mph78%30.07 "Hg10 mi
6:00 PM72 °FClear.6 mph69%30.04 "Hg10 mi
5:00 PM73 °FSunny.7 mph61%30.04 "Hg10 mi
4:00 PM77 °FSunny.6 mph51%30.04 "Hg10 mi
3:00 PM79 °FSunny.12 mph37%30.04 "Hg10 mi
2:00 PM82 °FSunny.9 mph42%30.04 "Hg10 mi
1:00 PM81 °FSunny.12 mph39%30.04 "Hg10 mi
12:30 PM79 °FSunny.12 mph42%30.07 "Hg10 mi
12:00 PM79 °FSunny.12 mph45%30.09 "Hg10 mi
11:30 AM79 °FPassing clouds.10 mph45%30.09 "HgN/A
11:00 AM77 °FSunny.10 mph47%30.12 "Hg10 mi
10:30 AM75 °FPassing clouds.9 mph47%30.12 "HgN/A
10:00 AM73 °FSunny.12 mph53%30.15 "Hg10 mi
Weather by CustomWeather, © 2014

See weather overviewHow to use our weather pages